EHI
2 1 1 1 0 0 0 0 0 0 0 0 0 0 0 0 0 0 0 0 0 0 0 0 0 0 0 0 0 0 0 0 0 0 0 0 0 0 0 0 0 0 0
2 2 2 1 0 0 0 0 0 0 0 0 0 0 0 0 0 0 0 0 0 0 0 0 0 0 0 0 0 0 1 1 0 0 0 0 0 0 0 0 0 0 0
2 1 2 2 1 0 0 0 0 0 0 0 0 0 0 0 0 0 0 0 0 0 0 0 0 0 0 0 0 0 1 1 0 0 0 0 0 0 0 0 0 0 0
1 0 2 4 3 1 0 0 0 1 1 1 1 0 0 0 1 1 1 1 0 0 0 0 0 0 0 0 0 0 1 1 0 0 0 0 0 0 0 0 0 0 0
0 1 3 5 4 2 0 0 0 1 2 2 2 1 1 1 1 2 2 1 0 0 0 0 0 0 0 0 0 0 0 0 0 0 0 0 0 0 0 0 0 0 0
0 1 4 7 6 3 1 0 0 1 1 2 2 2 1 1 1 1 1 1 0 0 0 0 0 0 0 1 1 1 1 1 1 0 0 0 1 1 0 0 0 0 0
0 1 5 8 7 3 1 0 0 0 0 1 1 1 1 2 2 1 0 0 0 0 0 0 0 0 0 2 2 1 1 1 1 0 0 0 1 1 0 0 0 0 0
1 1 4 7 5 3 1 0 0 0 0 0 0 0 0 1 1 1 0 0 0 0 0 0 0 0 0 1 1 1 0 0 0 0 0 0 1 1 1 0 0 0 0
2 3 4 4 3 2 1 0 0 0 0 0 0 0 0 0 0 0 0 0 0 0 0 0 0 0 0 0 0 0 0 0 0 0 0 0 0 1 2 1 0 0 0
3 3 3 2 1 1 0 0 0 0 0 0 0 0 0 0 0 0 0 0 0 0 0 0 0 0 0 0 0 0 0 0 0 0 0 0 0 1 1 1 0 0 1
1 2 2 2 1 1 0 0 0 0 0 0 0 0 0 0 0 0 0 0 0 0 0 0 0 0 0 0 0 0 0 0 0 0 0 0 0 0 0 0 0 0 1
0 1 1 1 2 1 0 0 0 0 0 0 0 0 0 0 0 0 0 0 0 0 0 0 0 0 0 0 0 0 0 0 0 0 0 0 0 0 0 0 0 0 1
0 0 0 1 1 1 0 0 0 0 0 0 0 0 0 0 0 0 0 0 0 0 0 0 0 0 0 0 0 0 0 0 0 0 0 0 0 0 0 0 0 0 0
0 0 0 0 0 0 0 0 0 0 0 0 0 0 0 0 0 0 0 0 0 0 0 0 0 0 0 0 0 0 0 0 0 0 0 0 0 0 0 0 0 0 0
0 0 0 0 0 0 0 0 0 0 0 0 0 0 0 0 0 0 0 0 0 0 0 0 0 0 0 0 0 0 0 0 0 0 0 0 0 0 0 1 1 0 0
0 0 0 0 0 0 0 0 0 0 0 0 0 0 0 0 0 0 0 0 0 0 0 0 0 0 0 0 0 0 0 0 0 0 0 0 0 0 0 1 1 0 0
0 0 0 0 0 0 0 0 0 0 0 0 0 0 0 0 0 0 0 0 0 0 0 0 0 0 0 0 0 0 0 0 0 0 0 0 0 0 0 1 1 0 0
0 0 0 0 0 0 0 0 0 0 0 0 0 0 0 0 0 0 0 0 0 0 0 0 0 0 0 0 0 0 0 0 0 0 0 0 0 0 0 0 0 0 0
0 0 0 0 0 0 0 0 0 0 0 0 0 0 0 0 0 0 0 0 0 0 0 0 0 0 0 0 0 0 0 0 0 0 0 0 0 0 0 0 0 0 0
0 0 0 0 0 0 0 0 0 0 0 0 0 0 0 0 0 0 0 0 0 0 0 0 0 0 0 0 0 0 0 0 0 0 0 0 0 0 0 0 0 0 0
0 0 0 0 0 0 0 0 0 0 0 0 0 0 0 0 0 0 0 0 0 0 0 0 0 0 0 0 0 0 0 0 0 0 0 0 0 0 0 0 0 0 0
0 0 0 0 0 0 0 0 0 0 0 0 0 0 0 0 0 0 0 0 0 0 0 0 0 0 0 0 0 0 0 0 0 0 0 0 0 0 0 0 0 0 0
0 0 0 0 0 0 0 0 0 0 0 0 0 0 0 0 0 0 0 0 0 0 0 0 0 0 0 0 0 0 0 0 0 0 0 0 0 0 0 0 0 0 0
0 0 0 0 0 0 0 0 0 0 0 0 0 0 0 0 0 0 0 0 0 0 0 0 0 0 0 0 0 0 0 0 0 0 0 0 0 0 0 0 0 0 0
0 0 0 0 0 0 0 0 0 0 0 0 0 0 0 0 0 0 0 0 0 0 0 0 0 0 0 0 0 0 0 0 0 0 0 0 0 0 0 0 0 0 0
0 0 0 0 0 0 0 0 0 0 0 0 0 0 0 0 0 0 0 0 0 0 0 0 0 0 0 0 0 0 0 0 0 0 0 0 0 0 0 0 0 0 0
Wind_Speed
5 5 6 8 9 10 10 11 11 11 11 11 12 12 12 12 12 13 12 12 12 13 12 12 12 12 13 13 13 13 13 13 13 13 14 14 14 14 14 13 12 10 14
6 7 8 9 10 10 10 11 11 11 11 12 12 12 12 13 13 12 12 12 12 13 13 12 12 13 13 13 12 12 11 11 10 9 10 11 12 14 14 14 13 9 14
8 8 7 9 11 11 11 11 11 11 12 12 12 12 13 13 13 13 13 13 13 13 13 13 12 12 13 12 12 11 10 10 9 8 7 5 8 13 14 13 13 14 13
8 8 8 10 11 11 11 11 11 12 12 12 12 12 13 13 13 13 13 13 13 12 13 12 12 12 12 12 11 11 10 10 9 8 6 6 6 12 13 13 13 13 13
8 8 9 11 11 11 11 12 12 12 12 12 12 13 13 13 13 13 13 13 12 12 12 12 12 12 12 11 11 11 10 10 10 8 6 6 6 11 12 12 12 12 12
8 8 8 11 11 11 11 11 11 12 11 12 12 13 13 13 13 13 12 12 12 12 12 12 12 11 11 11 11 10 10 10 8 6 6 6 5 10 12 12 12 12 12
8 8 8 10 11 11 11 11 11 11 11 12 12 13 12 13 13 13 13 13 12 12 12 11 11 11 11 11 10 10 10 9 6 6 6 6 7 11 11 12 12 11 12
7 7 7 10 10 10 10 10 10 11 11 12 12 12 12 12 12 12 12 12 12 12 11 11 11 10 10 10 10 10 10 9 7 7 6 6 10 12 12 11 11 11 11
7 7 6 6 7 9 10 10 10 10 11 11 11 11 11 11 12 11 11 11 11 11 11 11 11 11 10 9 9 9 9 10 6 5 7 5 10 11 12 11 11 10 10
6 6 6 5 5 5 5 9 9 9 10 10 10 10 10 10 10 10 10 10 11 11 11 11 10 10 9 8 8 8 8 7 6 6 4 6 11 11 11 11 10 10 9
5 5 5 4 4 4 4 7 7 8 8 8 7 7 7 4 5 6 8 10 10 11 10 10 10 10 9 8 8 8 6 3 5 4 4 8 11 10 10 10 10 10 9
5 4 4 4 4 4 4 4 3 3 3 3 3 3 3 4 4 5 8 8 9 9 9 9 8 7 6 3 5 6 3 4 4 4 5 10 10 10 9 9 9 9 9
6 4 4 4 4 4 2 2 2 2 2 3 4 4 3 3 3 3 2 3 4 5 4 4 4 3 3 3 3 3 4 3 3 3 5 10 9 9 9 9 9 9 9
7 5 4 4 4 3 3 2 2 2 2 2 2 3 3 2 2 2 2 2 2 2 2 3 2 3 4 4 4 4 4 3 3 3 5 9 9 8 8 8 8 8 9
6 6 5 4 4 3 3 2 2 2 2 2 2 2 3 2 2 2 2 2 2 2 2 3 3 4 4 4 4 5 4 4 4 3 3 9 9 8 8 8 8 8 8
7 7 5 5 4 4 3 2 2 2 2 2 2 2 3 2 2 2 2 2 2 2 2 2 3 3 3 3 4 4 4 4 4 4 3 5 9 9 8 8 8 8 8
8 7 6 5 4 4 3 3 2 2 2 2 2 2 2 3 2 2 2 2 2 2 3 3 3 3 3 3 4 4 3 4 4 4 4 3 3 8 9 9 9 9 9
8 8 7 6 5 4 3 3 2 2 2 2 2 2 2 3 2 2 2 2 1 2 2 2 2 2 3 3 3 2 2 3 4 4 3 3 2 3 6 9 9 9 9
8 8 7 6 6 4 4 3 3 2 2 2 2 2 2 2 2 2 2 1 1 2 1 1 2 2 2 3 2 2 2 2 2 3 3 3 3 3 2 6 9 9 9
7 8 8 7 6 5 4 3 2 2 2 2 2 2 2 2 2 2 2 2 2 2 2 2 2 2 2 2 2 2 1 1 1 1 2 2 2 3 3 3 3 5 9
8 8 8 8 7 5 4 3 3 2 2 2 2 3 2 2 2 2 2 2 2 2 1 2 2 2 2 2 2 2 2 1 1 1 2 2 2 2 3 3 2 2 3
9 9 8 8 7 6 4 3 2 2 2 2 2 2 2 2 2 2 2 2 1 1 2 2 1 1 1 2 1 1 1 2 2 1 1 1 2 2 2 3 2 2 2
8 9 8 8 8 7 5 3 3 2 2 2 2 1 2 2 2 2 2 2 1 1 1 1 1 1 1 1 1 1 1 1 2 1 1 1 1 1 1 1 2 3 3
7 6 7 8 7 7 6 6 6 4 4 3 3 2 2 2 2 2 2 2 1 1 1 1 1 0 1 0 1 1 0 1 1 1 2 1 1 1 1 1 2 2 2
6 6 6 7 7 7 6 6 5 4 3 3 3 3 2 2 2 2 2 2 2 1 1 1 1 1 0 1 0 0 1 1 0 1 2 2 1 1 1 1 1 1 1
5 5 5 6 6 7 7 6 5 5 5 5 4 4 3 2 2 2 2 2 2 1 1 1 1 1 0 0 0 0 0 0 1 0 1 2 2 2 1 1 1 1 1
Wind_Direction
95 98 85 81 84 82 79 75 71 69 69 68 65 62 63 62 60 60 59 60 61 61 60 59 60 61 62 63 61 61 62 62 65 67 66 62 62 65 65 62 65 66 70
108 105 92 85 85 84 82 78 74 73 72 70 68 65 63 61 59 60 59 58 59 58 59 60 60 61 62 62 61 61 61 60 59 63 68 64 61 63 64 62 64 69 71
102 105 100 90 86 83 82 81 77 76 74 72 69 67 64 62 59 58 57 57 58 57 57 58 60 61 61 60 59 59 57 52 46 46 58 67 66 64 64 64 66 68 69
104 105 100 93 90 86 81 79 79 79 75 72 70 68 65 63 61 59 58 58 58 57 56 57 58 60 60 58 56 53 49 40 34 39 55 60 61 66 67 66 66 67 68
101 99 99 95 91 86 82 78 75 78 77 74 71 70 67 64 63 60 59 58 57 56 56 56 57 60 60 56 52 48 43 37 41 43 52 57 56 65 67 67 66 68 69
98 99 101 94 92 86 82 78 75 74 76 75 73 71 69 65 63 61 59 57 55 55 56 56 56 60 59 55 50 44 38 36 44 45 49 54 55 64 66 66 66 67 68
97 99 104 95 92 88 83 80 77 75 73 75 75 73 69 67 65 63 58 56 53 52 52 54 55 58 57 53 47 40 33 35 55 52 51 52 54 61 63 63 63 64 66
101 101 105 98 92 90 87 83 79 75 74 73 75 73 69 67 65 62 60 58 55 52 50 51 53 55 55 53 47 39 32 36 50 54 54 52 55 56 60 60 59 60 61
98 102 103 101 96 91 87 84 81 79 76 73 74 76 72 68 65 63 59 59 57 54 53 51 51 49 53 51 44 37 34 39 43 40 52 53 59 59 58 57 55 59 61
96 101 103 105 102 98 92 86 81 81 78 76 72 73 74 71 67 64 59 59 58 55 55 52 50 47 44 43 38 30 31 41 51 42 37 54 61 61 57 55 53 54 57
104 101 104 104 100 98 97 92 87 85 83 80 76 72 71 62 62 58 58 58 58 55 54 51 47 45 39 37 30 27 34 51 59 48 33 54 59 58 55 54 52 50 54
128 117 110 104 102 98 101 101 97 91 92 83 79 67 63 60 64 65 61 58 55 50 49 45 41 36 31 21 22 25 35 46 56 54 39 52 57 54 51 51 52 49 51
141 128 116 112 110 102 98 101 87 82 79 73 73 67 68 70 75 67 59 51 44 41 31 28 29 22 25 21 27 29 32 46 55 51 38 49 54 52 49 48 48 50 51
145 139 127 123 117 112 105 101 94 88 79 70 63 68 71 69 70 69 60 48 38 29 20 23 25 26 28 24 32 35 32 48 57 57 43 49 50 49 47 47 48 50 51
151 147 142 136 130 120 108 107 97 93 91 82 66 58 69 76 81 74 60 47 39 34 29 24 26 28 30 25 29 38 37 44 54 62 48 50 49 49 44 45 45 47 47
161 154 149 147 137 126 117 112 111 105 102 96 81 66 67 69 81 82 69 53 42 33 30 33 33 29 29 31 34 35 39 37 46 57 61 51 46 47 47 45 43 41 41
162 156 155 152 138 132 128 125 112 111 107 104 94 83 73 68 74 84 82 63 48 40 38 38 34 33 34 37 38 31 35 35 42 50 51 58 48 45 45 45 45 44 42
159 158 159 155 148 141 133 125 122 118 112 112 110 95 81 70 69 83 85 73 59 56 51 54 39 42 38 33 32 24 31 30 39 45 49 48 50 51 41 43 43 41 38
162 159 158 153 152 144 134 128 119 114 112 120 119 108 90 75 70 88 90 81 64 61 52 51 45 49 48 34 27 23 33 36 31 49 50 51 52 59 52 44 42 38 36
159 156 157 153 151 141 133 126 115 107 108 113 116 117 111 97 77 83 95 86 69 67 55 53 57 53 54 38 29 28 18 35 30 61 59 55 49 50 47 47 42 35 35
160 159 161 159 158 153 153 154 149 148 140 128 125 125 124 113 95 101 100 91 78 81 82 74 67 76 48 33 39 13 1 39 52 50 51 55 49 49 45 39 41 39 28
169 166 166 166 165 164 163 159 152 140 140 134 122 126 128 117 117 119 112 111 99 94 84 78 73 76 55 29 49 54 10 359 3 17 28 50 44 42 44 32 40 43 37
173 173 173 170 169 166 153 137 129 112 109 113 132 143 133 127 129 125 121 115 115 105 110 97 95 85 96 0 32 95 124 199 330 319 343 35 34 28 29 26 37 43 35
174 170 170 168 169 166 160 163 164 163 164 171 169 158 148 134 129 116 123 117 110 101 120 135 84 100 110 87 2 14 53 152 156 315 317 333 11 1 354 9 24 32 31
165 164 165 168 170 168 170 170 169 162 154 140 143 145 147 138 125 113 114 121 116 102 106 90 63 56 90 145 175 323 355 358 3 182 272 297 323 318 334 335 342 358 8
153 157 162 168 174 171 170 171 172 163 155 150 153 158 158 152 138 134 119 113 114 112 112 109 74 69 55 90 48 27 94 48 313 303 275 293 293 285 286 282 282 290 329